Location: Buisson
(44.2787°N, 4.9969°E)
Time: 20:23:02
(UTC+00:00)

X-37B - Pass Details

Date: 27 September 2021
Orbit: 385 x 389 km, 45.0° (Epoch: 17 October)

Event Time Altitude Azimuth Distance (km) Brightness Sun altitude
Exits shadow 04:54:07 10° 277° (W) 1,403 2.8 -7.8°
Maximum altitude 04:57:17 76° 4° (N) 402 0.7 -7.2°
Drops below altitude 10° 05:00:28 10° 91° (E) 1,415 5.2 -6.7°
Sets 05:02:32 0° 93° (E) 2,270 7.0 -6.3°
